STARLINK-5875, 57221

Orbit data source: Space-Track

STARLINK-5875, 57221 is a payload satellite owned by SpaceX/Seattle (US) in LEO that was launched on Fri, 07 Jul 2023 UTC via an FALCON 9 launch vehicle from the Air Force Western Test Range (AFWTR). Payload-class satellites include a variety of spacecraft equipped with specific instruments for various scientific and technological missions. These include communications satellites like Starlink; space stations such as the ISS; scientific satellites like the Hubble; Earth observation satellites from companies like Planet Labs, Umbra, and HawkEye 360; GPS; miniature CubeSats for education and research; and military/defense satellites.

Not visible in the next 10 days
Identifier
57221, 2023-094D
Orbit
LEO
Country
Flag of USUS
Related business
Manufacturer
SpaceX/Seattle
Mission
Partially operational Commercial Communications
Bus & Motor
STARLINK, Unknown motor
Mass
305 kg wet, ~290 kg dry
Launch date (UTC)
2023-07-07 (3 years ago)
Launch vehicle
FALCON 9
Launch site
Air Force Western Test Range (AFWTR)
Object type
Payload
Rocket body
Debris
Shape & HBR
Box + 1 Pan, 10.1 m
Radar Cross Section
11.087 m², Large (>1 m²)

Expand to show TLE details & history
Last TLE update: 1 day ago

TLE from 1 day ago
0 STARLINK-5875
1 57221U 23094D   26171.99210911  .01422492  12717-2  17720-2 0  9997
2 57221  42.9960 157.5857 0001397 271.7909  88.2811 16.07133484163029
Epoch: 2026-06-20T23:48Z
TLE epoch observation values (Epoch: 2026-06-20T23:48:38.227Z)
Latitude
-0.00006°
Longitude
-108.77243°
Altitude
254.458 km
Speed
7.756 km/s
True Right ascension
10h 30m 20s
True Declination
0° 00' 00"
Sunlit
Object was in daylight at epoch
Visualization orbit readout
Latitude
Unknown
Longitude
Unknown
Altitude
Unknown
Speed
Unknown
Apparent Right ascension
Unknown
Apparent Declination
Unknown
Sunlit
N/A
Visualization observer readout
Local Sidereal Time
21:29:44
Azimuth
Unknown
Elevation
Unknown
Doppler factor
Unknown
Orbital elements
Apogee altitude
257.658 km
Perigee altitude
255.804 km
Semi-major axis
6,634.868 km
Eccentricity
0.00014
Inclination
42.996°
RAAN
157.5857°
Arg. of periapsis
271.7909°
True anomaly
88.2971°
Mean anomaly
88.2811°
Eccentric anomaly
88.2891°
Mean motion
4.01601 °/min
Orbital period
89.64 mins
BSTAR
0.001772
Loading maneuver chart data...
Computing Atmospheric mass density...
Loading historical data...
Loading historical data...
Loading historical data...
Loading historical data...
Loading historical data...
Loading historical data...
Loading historical data...

Documentation

Showing up to 5 results
|